RH
87 95 94 94 79 80 95 94 99 90 67 81 83 81 76 75 65 74 83 81 82 85 67 62 69 74 78 90 95 95 97 98 92 96 93 91 94 93 90 83 74 73 71 78
87 95 76 64 68 70 69 90 92 78 70 69 70 78 68 65 69 68 74 78 80 84 84 87 90 88 90 89 94 95 94 95 96 96 91 88 90 92 91 85 79 77 76 79
94 75 60 65 62 64 78 87 83 83 71 68 77 83 78 59 58 58 66 70 79 87 89 79 94 93 86 90 96 94 94 96 96 98 96 89 88 93 95 93 90 86 81 83
84 67 60 65 62 63 86 65 72 72 83 91 77 96 80 77 72 70 78 81 88 89 90 87 91 89 94 94 97 97 98 96 95 96 98 94 94 96 92 92 90 91 87 88
69 64 69 72 62 66 76 66 76 83 90 94 82 96 81 83 92 90 87 84 90 91 94 95 92 90 95 98 99 98 98 98 99 98 97 99 96 90 93 94 95 94 94 92
76 60 67 65 57 61 62 79 82 89 90 96 86 92 88 97 96 94 76 84 90 91 97 96 96 93 98 99 99 98 98 99 98 98 99 98 100 98 97 96 97 96 94 93
72 63 55 58 71 68 74 85 97 96 98 94 86 92 99 94 72 67 80 88 92 92 94 96 97 98 98 98 99 97 95 97 97 98 98 97 98 97 96 95 95 96 98 96
95 78 62 55 72 76 88 93 93 96 97 97 81 96 92 68 61 57 64 77 88 91 93 94 96 95 98 98 98 97 96 95 96 98 98 96 97 96 94 95 94 93 92 93
90 75 60 61 67 73 82 94 84 89 92 93 95 70 71 69 72 65 66 72 88 91 91 93 92 92 90 94 98 98 96 95 97 98 96 95 92 92 92 91 91 91 91 95
76 93 62 64 58 60 71 75 88 93 92 100 93 92 89 92 86 74 76 76 74 82 87 88 87 85 87 87 92 97 97 99 98 98 97 96 96 94 94 95 98 98 99 97
85 76 58 65 69 80 71 81 89 88 89 95 99 91 82 84 74 86 80 76 73 73 78 83 73 70 74 76 84 95 98 97 98 97 98 98 99 98 97 98 98 98 99 99
80 80 93 74 75 70 69 75 93 94 95 84 94 93 84 90 78 85 85 78 73 71 70 77 72 67 67 75 79 84 91 97 99 98 97 98 98 99 99 99 99 99 99 99
77 81 80 49 54 58 70 67 73 89 92 95 93 88 81 84 85 87 91 86 80 76 75 76 73 73 73 73 77 84 84 92 98 98 98 99 99 98 98 99 99 98 98 99
63 90 72 65 65 74 85 69 66 81 94 93 91 87 77 86 89 90 92 92 89 88 81 81 82 81 83 78 78 80 86 85 93 98 98 99 99 99 99 99 99 99 99 99
60 76 89 74 71 76 76 72 66 85 86 85 78 86 81 86 90 92 92 92 91 92 90 89 88 88 86 88 83 79 86 83 86 93 97 99 98 98 99 99 99 99 99 99
77 83 94 88 70 80 81 71 68 61 68 78 79 85 78 89 89 90 92 94 94 94 92 94 92 91 91 95 94 88 84 89 81 82 85 90 93 93 94 93 95 95 97 98
84 94 94 69 79 76 50 51 64 65 70 74 90 73 86 88 91 91 92 94 95 95 91 93 95 95 95 95 96 95 94 88 85 85 84 88 90 93 96 96 95 95 92 89
80 97 93 88 72 23 27 66 64 65 72 76 78 80 86 86 88 90 92 95 92 93 90 91 94 94 95 94 94 93 93 93 92 92 91 90 93 90 89 94 94 94 94 95
82 89 92 84 90 35 62 74 82 77 49 77 81 81 86 89 94 91 88 90 92 93 90 91 92 93 93 94 94 92 93 94 94 95 94 94 94 93 92 92 93 94 98 99
75 84 88 94 56 28 21 73 80 72 26 51 80 82 89 91 98 87 89 88 87 87 88 88 89 91 92 94 92 92 94 94 96 96 96 94 93 93 94 95 94 94 94 96
92 94 74 94 85 46 37 76 74 47 13 73 81 80 90 93 85 79 86 85 83 84 88 88 90 93 93 93 91 92 92 96 97 95 94 93 94 95 96 95 95 95 96 95
51 75 85 92 91 26 57 82 52 26 71 78 84 82 87 86 84 86 83 82 75 80 86 88 88 90 91 92 91 92 92 95 95 94 93 94 93 96 96 94 95 95 96 96
62 49 47 52 38 28 78 58 66 53 68 80 82 81 83 86 87 84 80 78 72 71 77 87 89 88 88 90 91 90 92 94 95 94 94 94 93 93 95 96 96 96 96 96
62 65 62 51 46 51 46 55 78 70 74 73 80 78 86 83 85 85 79 75 76 75 75 81 89 89 89 90 90 91 92 93 93 94 95 95 96 94 93 95 97 98 97 97
46 62 64 65 52 49 45 48 45 56 73 76 79 81 83 86 84 83 79 79 79 80 80 82 90 91 90 90 90 89 90 92 92 92 95 95 96 96 96 94 96 97 96 96
61 50 47 30 24 25 24 32 46 54 69 73 78 81 82 85 84 76 79 79 81 81 83 86 92 93 91 91 90 88 89 91 94 94 96 97 96 96 97 97 95 84 87 87
Wind_Speed
1 1 7 8 8 16 12 11 9 10 15 6 8 8 7 10 13 17 18 19 18 14 17 15 13 13 16 14 14 13 10 7 14 13 15 16 14 12 9 9 14 15 13 13
3 7 11 6 11 10 11 12 11 8 6 4 8 8 3 8 15 16 17 19 20 18 15 8 6 10 14 16 14 11 11 8 9 6 13 13 14 12 12 10 12 15 15 15
6 8 7 5 8 5 4 5 6 6 7 4 6 3 4 18 12 20 24 24 24 22 13 10 9 14 15 14 9 9 10 10 11 6 8 14 12 11 10 11 10 11 14 15
5 5 3 4 4 4 5 5 5 4 5 3 3 5 4 20 21 24 25 27 24 29 4 5 7 10 11 7 5 6 5 9 7 12 6 18 16 13 9 10 10 10 12 13
7 4 4 3 4 3 7 2 6 2 3 2 5 3 7 17 23 28 27 27 27 24 2 8 9 11 8 7 7 6 2 3 8 6 10 3 9 8 7 7 10 11 10 12
6 4 2 4 8 3 2 5 4 4 1 3 6 1 5 15 19 21 22 24 26 27 13 6 4 8 8 7 5 6 4 4 2 8 8 9 2 12 10 10 10 8 7 8
7 5 6 1 6 2 7 3 3 5 1 3 6 4 2 14 17 17 19 20 21 21 21 19 17 9 8 8 5 5 5 8 6 3 5 8 9 11 14 13 10 13 7 5
3 8 4 5 1 4 3 2 5 3 3 4 6 4 3 11 13 16 17 18 20 23 19 18 19 15 11 8 6 6 7 8 1 5 8 10 11 8 9 12 10 10 10 11
3 5 4 1 3 2 4 4 3 3 2 4 4 3 5 13 15 17 19 20 20 21 19 19 20 17 14 8 5 4 4 6 11 8 9 11 12 13 11 12 8 8 8 6
2 5 1 5 5 4 4 2 3 3 3 2 4 2 5 13 17 17 18 19 19 19 21 20 18 17 15 13 12 12 11 7 6 7 5 9 10 9 9 9 8 7 6 5
2 3 8 3 6 3 6 4 5 3 1 5 1 4 0 7 11 11 13 15 16 17 17 16 16 16 16 16 15 10 3 4 6 9 9 10 5 10 9 10 9 8 6 6
3 2 2 4 2 2 1 2 2 4 1 3 3 6 2 5 5 6 9 11 13 13 14 14 15 15 16 15 13 13 13 12 5 5 9 10 9 9 7 9 7 7 7 5
2 3 4 11 6 4 5 3 2 3 3 1 4 6 2 5 4 6 8 9 10 12 13 12 14 15 14 14 13 13 13 11 7 6 7 7 7 10 9 5 6 6 6 4
4 2 6 7 7 3 6 4 3 3 4 3 5 4 7 7 6 7 8 8 8 7 11 12 13 13 13 13 13 13 13 12 11 8 5 6 5 7 6 5 4 4 5 5
4 3 3 6 6 3 5 8 4 2 4 5 3 4 5 6 7 4 5 7 8 9 11 11 11 11 12 13 13 13 13 13 12 12 11 9 9 9 7 5 4 5 4 2
4 1 2 4 4 4 5 7 6 4 3 5 4 6 6 2 5 6 5 5 6 8 9 8 8 10 11 11 11 11 12 13 12 13 12 10 10 9 7 6 6 6 5 5
3 3 3 6 2 3 6 6 6 3 4 4 3 6 4 4 4 5 6 6 6 5 6 8 8 7 7 9 7 9 10 9 12 11 11 11 9 8 6 6 7 6 6 4
2 4 2 5 5 4 6 2 4 6 7 8 4 4 5 3 3 6 6 3 6 5 5 5 5 6 7 6 7 6 6 7 7 8 9 8 8 7 7 7 6 6 4 5
2 2 2 2 2 7 1 3 5 4 6 7 9 6 5 2 2 6 6 4 2 3 3 2 2 3 4 5 6 6 7 6 7 8 8 8 7 7 6 5 4 3 3 3
3 4 4 1 2 2 2 2 1 2 5 6 7 8 8 5 2 5 4 4 4 3 2 4 4 2 4 4 4 4 5 6 8 7 6 6 6 6 6 5 6 4 3 3
2 3 3 2 3 9 6 4 3 2 7 4 6 7 8 6 6 4 5 4 3 2 3 1 3 3 4 5 5 7 6 8 6 6 6 5 5 5 5 4 3 3 3 4
4 5 4 2 1 5 7 3 6 6 2 4 5 6 8 6 5 6 7 7 6 5 1 0 2 3 3 4 5 5 7 6 5 4 5 5 5 4 4 5 5 4 4 4
4 7 4 9 8 3 9 8 7 4 4 5 5 7 8 7 7 7 7 7 6 5 3 2 3 2 1 0 2 4 5 5 6 6 6 6 6 5 4 4 5 4 4 3
5 4 4 2 4 10 12 10 7 8 9 7 7 7 8 8 8 8 6 6 5 4 4 3 4 3 4 3 1 1 4 5 4 5 5 5 6 6 5 3 2 3 3 3
4 6 5 8 12 9 13 13 12 11 10 8 7 8 10 8 6 7 6 6 6 5 4 4 6 4 4 4 3 2 2 2 2 2 3 5 4 5 5 4 4 4 3 3
8 11 9 11 13 7 10 6 6 10 12 14 11 7 7 9 9 7 6 6 4 5 3 4 5 4 4 4 4 3 2 2 3 3 3 3 4 3 3 3 5 3 4 9
Wind_Direction
296 312 256 247 272 277 282 274 282 265 270 282 265 293 293 328 334 319 328 322 315 296 266 249 225 201 198 195 182 191 192 198 182 177 180 178 179 167 176 177 177 178 183 165
287 261 256 258 271 279 281 277 273 270 277 288 294 276 342 335 329 324 331 319 319 312 302 243 212 196 187 193 185 184 194 142 160 186 190 173 181 173 174 177 181 182 182 173
223 254 307 293 272 276 282 261 275 283 322 281 318 308 334 336 334 345 341 337 331 326 286 224 191 186 188 190 177 194 190 169 129 150 197 183 174 170 169 180 181 182 182 182
239 284 281 281 277 279 276 240 264 316 17 289 18 288 333 342 344 356 344 341 336 332 226 216 166 161 159 174 147 219 204 178 154 125 105 211 168 161 173 176 170 175 175 179
262 298 322 273 238 212 244 290 282 209 244 315 327 272 272 348 351 347 344 336 345 343 163 129 146 149 133 141 156 190 257 131 92 128 118 18 167 160 139 160 166 175 172 176
257 282 270 256 304 187 288 288 40 37 16 17 328 4 323 357 339 329 336 340 345 350 358 39 136 154 139 127 137 139 163 68 92 99 136 141 243 132 152 161 163 163 169 169
328 285 303 293 337 4 10 52 22 22 178 204 337 26 321 342 339 337 339 339 346 352 15 30 23 117 108 99 99 105 84 69 27 92 161 172 182 165 172 172 167 160 165 182
30 336 352 329 337 301 304 54 137 139 141 254 344 6 304 354 335 346 353 353 3 5 15 25 16 19 42 51 57 79 63 51 72 193 166 179 178 176 179 182 178 180 176 190
7 278 315 270 319 34 333 44 316 87 59 60 309 346 350 342 348 353 358 7 5 2 9 14 14 10 1 354 52 91 94 65 21 349 191 174 179 174 181 178 169 168 163 156
297 312 109 300 25 1 56 322 44 6 72 33 326 295 355 341 342 348 1 3 6 6 8 6 5 4 6 14 9 17 24 40 10 23 111 163 139 142 150 134 118 115 105 151
322 110 299 52 35 318 343 15 23 51 351 148 195 286 192 334 325 342 353 359 2 7 10 7 3 6 9 13 19 19 9 78 56 49 72 75 104 115 121 104 109 109 120 138
332 144 304 261 237 237 291 49 118 113 254 64 145 279 294 294 329 348 344 358 359 6 10 11 8 9 11 6 9 11 12 19 41 76 76 76 74 78 93 87 89 104 110 122
347 7 12 342 7 28 42 334 87 118 38 116 116 264 240 335 349 358 357 350 357 1 9 7 12 14 9 2 8 9 10 11 11 75 82 83 84 75 66 91 160 157 163 143
88 89 156 179 210 212 306 321 30 94 87 195 218 279 307 319 342 350 347 348 349 358 5 10 15 9 5 2 4 6 9 12 16 35 68 83 86 95 87 49 66 115 148 179
93 157 192 243 239 225 253 284 317 89 211 138 240 220 254 280 301 323 319 332 352 0 11 9 7 9 6 8 8 5 11 15 21 36 36 37 46 59 63 57 50 53 63 77
350 285 77 292 218 240 273 267 264 245 213 258 244 268 205 212 301 320 327 345 353 346 353 356 7 7 10 7 3 5 11 12 26 33 30 27 34 48 46 39 33 40 37 29
63 106 45 273 359 349 348 220 195 206 207 193 220 231 178 200 215 275 310 340 339 344 349 349 352 355 7 2 354 14 5 7 27 25 27 20 21 27 27 35 30 34 30 10
120 99 104 277 2 22 241 166 198 212 235 211 227 219 219 232 198 190 205 258 316 331 347 343 359 352 2 351 358 1 17 26 29 24 16 14 17 20 21 22 19 23 13 9
9 98 69 97 229 289 247 220 186 194 281 204 204 200 210 179 6 286 207 208 240 294 283 242 311 345 356 12 350 4 23 24 22 16 11 6 6 9 13 24 26 24 25 339
93 83 114 85 97 242 236 238 215 111 297 190 181 187 176 149 168 258 209 202 241 255 297 331 342 343 25 356 3 37 30 27 20 359 355 356 1 9 11 358 357 357 357 342
29 17 161 218 253 284 239 188 164 321 239 171 187 182 166 188 203 194 173 211 206 240 292 28 3 18 6 356 13 28 19 22 343 340 352 12 17 22 16 10 15 8 356 353
211 152 202 91 17 305 171 97 176 217 203 188 198 205 197 212 182 197 206 201 195 189 234 339 0 355 357 1 22 13 22 338 341 358 25 18 19 25 19 26 12 8 21 19
268 193 200 187 221 244 204 213 213 172 207 204 191 209 206 202 214 206 209 207 202 195 198 219 202 232 250 249 53 7 344 337 344 9 12 12 359 15 37 38 8 1 4 2
242 174 220 1 259 229 230 244 237 211 213 208 215 195 180 201 201 210 213 209 215 222 214 203 209 226 251 219 208 234 305 333 357 15 1 4 12 355 4 22 40 4 343 336
201 139 201 260 279 269 251 224 234 233 226 216 211 198 202 192 210 202 205 214 226 225 222 202 207 201 241 217 220 217 254 350 334 39 0 8 13 9 351 356 351 349 316 326
189 190 190 239 236 207 250 206 201 211 214 219 201 206 201 185 192 184 209 213 213 236 237 228 213 191 217 203 208 217 238 74 349 356 7 353 348 353 346 338 333 349 327 336